SL-8 DEB, 43335

Orbit data source: Space-Track

SL-8 DEB, 43335 is space debris in LEO originally from a launch on Tue, 04 Apr 1989 UTC launched from the Plesetsk Missile And Space Complex (PKMTR). Debris objects in space refer to the collection of defunct objects orbiting the Earth. Examples of debris include non-operational satellites, rocket bodies, and fragments generated from explosions, collisions, or faulty payload assembly.

Loading next visibility...
Identifier
43335, 1989-028C
Orbit
LEO
Country
Flag of CISCIS
Related business
Manufacturer
Polyot
Mission
Spacecraft
Bus & Motor
Unknown
Mass
Unknown
Launch date (UTC)
1989-04-04 (37 years ago)
Launch vehicle
Unknown
Launch site
Plesetsk Missile And Space Complex (PKMTR)
Object type
Payload
Rocket body
Debris
Shape & HBR
Unknown shape, 0.1 m
Radar Cross Section
Medium (>0.1 m² and <1 m²)

Expand to show TLE details & history
Last TLE update: 2 days ago

TLE from 2 days ago
0 SL-8 DEB
1 43335U 89028C   26171.32066789  .00000999  00000-0  85103-3 0  9990
2 43335  82.9382 119.2242 0038650 201.5622 158.3914 13.85996487633613
Epoch: 2026-06-20T07:41Z
TLE epoch observation values (Epoch: 2026-06-20T07:41:45.705Z)
Latitude
-0.0001°
Longitude
95.24677°
Altitude
971.936 km
Speed
7.352 km/s
True Right ascension
07h 56m 53s
True Declination
0° 00' 00"
Sunlit
Object was in daylight at epoch
Visualization orbit readout
Latitude
Unknown
Longitude
Unknown
Altitude
Unknown
Speed
Unknown
Apparent Right ascension
Unknown
Apparent Declination
Unknown
Sunlit
N/A
Visualization observer readout
Local Sidereal Time
21:34:53
Azimuth
Unknown
Elevation
Unknown
Doppler factor
Unknown
Orbital elements
Apogee altitude
968.112 km
Perigee altitude
911.544 km
Semi-major axis
7,317.965 km
Eccentricity
0.00387
Inclination
82.9382°
RAAN
119.2242°
Arg. of periapsis
201.5622°
True anomaly
158.55377°
Mean anomaly
158.3914°
Eccentric anomaly
158.47266°
Mean motion
3.46703 °/min
Orbital period
103.84 mins
BSTAR
0.00085103
Loading maneuver chart data...
Computing Atmospheric mass density...
Loading historical data...
Loading historical data...
Loading historical data...
Loading historical data...
Loading historical data...
Loading historical data...
Loading historical data...
Other satellites on launch #28 in the year 1989 (1989-04-04 UTC)

Documentation

Showing up to 5 results
|